The Dalles, WA

11:47 PM PDT on August 18, 2017 (GMT -0700)
Columbia Gorge Regional-The Dalles

Weather History for KDLS - May, 2013

Change the Weather History Date:

Saturday, May 25, 2013

  Actual Average Record
Temperature  
Mean Temperature 57 °F -  
Max Temperature 70 °F 76 °F 95 °F (1966)
Min Temperature 45 °F 50 °F 36 °F (1964)
Degree Days  
Heating Degree Days 8    
Growing Degree Days 7 (Base 50)    
Moisture  
Dew Point 42 °F    
Average Humidity 57    
Maximum Humidity 83    
Minimum Humidity 36    
Precipitation  
Precipitation 0.00 in - - ()
Sea Level Pressure  
Sea Level Pressure 29.99 in    
Wind  
Wind Speed 6 mph (WNW)    
Max Wind Speed 16 mph    
Max Gust Speed 20 mph    
Visibility 10 miles    
Events      
Averages and records for this station are not official NWS values.
T = Trace of Precipitation, MM = Missing Value Source: NWS Daily Summary

Daily Weather History Graph

Daily Weather History Graph

Search for Another Location

Airport or City:

Trip Planner

Search our weather history database for the weather conditions in past years. The results will help you decide how hot, cold, wet, or windy it might be!

Date:

Astronomy

May. 25, 2013 Rise Set
Actual Time 5:23 AM PDT 8:40 PM PDT
Civil Twilight 4:47 AM PDT 9:16 PM PDT
Nautical Twilight 4:00 AM PDT 10:03 PM PDT
Astronomical Twilight 3:01 AM PDT 11:03 PM PDT
Moon 9:33 PM PDT (5/25) 5:56 AM PDT (5/25)
Length of Visible Light 16h 29m
Length of Day
15h 16m
Waxing Gibbous, 99% of the Moon is Illuminated
May 25
Waxing Gibbous
May 31
Last Quarter
Jun 8
New
Jun 16
First Quarter
Jun 23
Full

Hourly Weather History & Observations

Time (PDT) Temp. Windchill Dew Point Humidity Pressure Visibility Wind Dir Wind Speed Gust Speed Precip Events Conditions
12:53 AM 50.0 °F - 42.1 °F 74% 30.04 in 10.0 mi WSW 5.8 mph - N/A   Clear
1:53 AM 50.0 °F - 43.0 °F 77% 30.04 in 10.0 mi Variable 3.5 mph - N/A   Clear
2:53 AM 48.0 °F - 42.1 °F 80% 30.04 in 10.0 mi West 5.8 mph - N/A   Clear
3:53 AM 46.0 °F 44.8 °F 41.0 °F 83% 30.04 in 10.0 mi SSE 3.5 mph - N/A   Scattered Clouds
4:53 AM 45.0 °F 42.6 °F 39.9 °F 82% 30.04 in 10.0 mi SE 4.6 mph - N/A   Partly Cloudy
5:53 AM 46.0 °F 44.8 °F 41.0 °F 83% 30.05 in 10.0 mi SE 3.5 mph - N/A   Overcast
6:53 AM 50.0 °F - 42.1 °F 74% 30.06 in 10.0 mi Calm Calm - N/A   Scattered Clouds
7:53 AM 53.1 °F - 44.1 °F 71% 30.05 in 10.0 mi Variable 3.5 mph - N/A   Partly Cloudy
8:53 AM 57.0 °F - 44.1 °F 62% 30.04 in 10.0 mi Calm Calm - N/A   Scattered Clouds
9:53 AM 60.1 °F - 43.0 °F 53% 30.03 in 10.0 mi NNW 10.4 mph - N/A   Overcast
10:53 AM 61.0 °F - 42.1 °F 50% 30.02 in 10.0 mi NW 9.2 mph - N/A   Overcast
11:53 AM 63.0 °F - 39.9 °F 43% 30.01 in 10.0 mi NW 13.8 mph 17.3 mph N/A   Overcast
12:53 PM 64.9 °F - 39.9 °F 40% 30.01 in 10.0 mi WNW 11.5 mph 16.1 mph N/A   Mostly Cloudy
1:53 PM 69.1 °F - 41.0 °F 36% 29.99 in 10.0 mi NW 16.1 mph 19.6 mph N/A   Partly Cloudy
2:53 PM 68.0 °F - 41.0 °F 37% 29.97 in 10.0 mi NNW 13.8 mph - N/A   Partly Cloudy
3:53 PM 69.1 °F - 41.0 °F 36% 29.96 in 10.0 mi NNW 8.1 mph - N/A   Clear
4:53 PM 68.0 °F - 41.0 °F 37% 29.95 in 10.0 mi WNW 10.4 mph - N/A   Clear
5:53 PM 68.0 °F - 42.1 °F 39% 29.94 in 10.0 mi NNW 3.5 mph - N/A   Clear
6:53 PM 68.0 °F - 42.1 °F 39% 29.93 in 10.0 mi West 8.1 mph - N/A   Clear
7:53 PM 66.9 °F - 42.1 °F 40% 29.92 in 10.0 mi WNW 8.1 mph - N/A   Clear
8:53 PM 63.0 °F - 44.1 °F 50% 29.92 in 10.0 mi West 5.8 mph - N/A   Clear
9:53 PM 61.0 °F - 45.0 °F 56% 29.93 in 10.0 mi SW 4.6 mph - N/A   Clear
10:53 PM 59.0 °F - 46.0 °F 62% 29.94 in 10.0 mi Calm Calm - N/A   Scattered Clouds
11:53 PM 57.9 °F - 46.0 °F 65% 29.94 in 10.0 mi Calm Calm - N/A   Overcast